Time,TemperatureF,DewpointF,PressureIn,WindDirection,WindDirectionDegrees,WindSpeedMPH,WindSpeedGustMPH,Humidity,HourlyPrecipIn,Conditions,Clouds,dailyrainin,SolarRadiationWatts/m^2,SoftwareType,DateUTC
2013-09-28 00:22:00,26.0,24.0,-100.00,West,262,15.0,23.0,92,0.00,,,0.19,0.000000,,2013-09-28 06:22:00,
2013-09-28 00:32:00,26.0,24.0,-100.00,West,262,15.0,23.0,92,0.00,,,0.19,0.000000,,2013-09-28 06:32:00,
2013-09-28 00:42:00,26.0,24.0,-100.00,West,262,15.0,23.0,92,0.00,,,0.19,0.000000,,2013-09-28 06:42:00,
2013-09-28 00:52:00,26.0,24.0,-100.00,West,267,18.0,32.0,92,0.00,,,0.19,0.000000,,2013-09-28 06:52:00,
2013-09-28 01:22:00,26.0,24.0,-100.00,West,267,18.0,32.0,92,0.00,,,0.19,0.000000,,2013-09-28 07:22:00,
2013-09-28 01:32:00,26.0,24.0,-100.00,West,267,18.0,32.0,92,0.00,,,0.19,0.000000,,2013-09-28 07:32:00,
2013-09-28 01:42:00,26.0,24.0,-100.00,West,267,18.0,32.0,92,0.00,,,0.19,0.000000,,2013-09-28 07:42:00,
2013-09-28 01:52:00,26.0,24.0,-100.00,West,269,16.0,35.0,92,0.00,,,0.19,0.000000,,2013-09-28 07:52:00,
2013-09-28 02:21:00,26.0,24.0,-100.00,West,269,16.0,35.0,92,0.00,,,0.19,0.000000,,2013-09-28 08:21:00,
2013-09-28 02:32:00,26.0,24.0,-100.00,West,269,16.0,35.0,92,0.00,,,0.19,0.000000,,2013-09-28 08:32:00,
2013-09-28 02:43:00,26.0,24.0,-100.00,West,269,16.0,35.0,92,0.00,,,0.19,0.000000,,2013-09-28 08:43:00,
2013-09-28 02:52:00,24.0,21.0,-100.00,West,261,16.0,31.0,87,0.00,,,0.19,0.000000,,2013-09-28 08:52:00,
2013-09-28 03:22:00,24.0,21.0,-100.00,West,261,16.0,31.0,87,0.00,,,0.19,0.000000,,2013-09-28 09:22:00,
2013-09-28 03:33:00,24.0,21.0,-100.00,West,261,16.0,31.0,87,0.00,,,0.19,0.000000,,2013-09-28 09:33:00,
2013-09-28 03:43:00,24.0,21.0,-100.00,West,261,16.0,31.0,87,0.00,,,0.19,0.000000,,2013-09-28 09:43:00,
2013-09-28 03:52:00,24.0,21.0,-100.00,West,261,18.0,30.0,88,0.00,,,0.19,0.000000,,2013-09-28 09:52:00,
2013-09-28 04:22:00,24.0,21.0,-100.00,West,261,18.0,30.0,88,0.00,,,0.19,0.000000,,2013-09-28 10:22:00,
2013-09-28 04:33:00,24.0,21.0,-100.00,West,261,18.0,30.0,88,0.00,,,0.19,0.000000,,2013-09-28 10:33:00,
2013-09-28 04:43:00,24.0,21.0,-100.00,West,261,18.0,30.0,88,0.00,,,0.19,0.000000,,2013-09-28 10:43:00,
2013-09-28 04:52:00,24.0,20.0,-100.00,WSW,257,16.0,30.0,85,0.00,,,0.19,0.000000,,2013-09-28 10:52:00,
2013-09-28 05:22:00,24.0,20.0,-100.00,WSW,257,16.0,30.0,85,0.00,,,0.19,0.000000,,2013-09-28 11:22:00,
2013-09-28 05:33:00,24.0,20.0,-100.00,WSW,257,16.0,30.0,85,0.00,,,0.19,0.000000,,2013-09-28 11:33:00,
2013-09-28 05:43:00,24.0,20.0,-100.00,WSW,257,16.0,30.0,85,0.00,,,0.19,0.000000,,2013-09-28 11:43:00,
2013-09-28 05:52:00,23.0,19.0,-100.00,WSW,255,14.0,32.0,83,0.00,,,0.19,0.000000,,2013-09-28 11:52:00,
2013-09-28 06:22:00,23.0,19.0,-100.00,WSW,255,14.0,32.0,83,0.00,,,0.19,0.000000,,2013-09-28 12:22:00,
2013-09-28 06:32:00,23.0,19.0,-100.00,WSW,255,14.0,32.0,83,0.00,,,0.19,0.000000,,2013-09-28 12:32:00,
2013-09-28 06:42:00,23.0,19.0,-100.00,WSW,255,14.0,32.0,83,0.00,,,0.19,0.000000,,2013-09-28 12:42:00,
2013-09-28 06:52:00,23.0,18.0,-100.00,WSW,254,13.0,26.0,82,0.00,,,0.18,1.000000,,2013-09-28 12:52:00,
2013-09-28 07:22:00,23.0,18.0,-100.00,WSW,254,13.0,26.0,82,0.00,,,0.18,1.000000,,2013-09-28 13:22:00,
2013-09-28 07:32:00,23.0,18.0,-100.00,WSW,254,13.0,26.0,82,0.00,,,0.18,1.000000,,2013-09-28 13:32:00,
2013-09-28 07:42:00,23.0,18.0,-100.00,WSW,254,13.0,26.0,82,0.00,,,0.18,1.000000,,2013-09-28 13:42:00,
2013-09-28 07:52:00,24.0,19.0,-100.00,WSW,246,11.0,19.0,82,0.00,,,0.12,31.000000,,2013-09-28 13:52:00,
2013-09-28 08:21:00,24.0,19.0,-100.00,WSW,246,11.0,19.0,82,0.00,,,0.12,31.000000,,2013-09-28 14:21:00,
2013-09-28 08:32:00,24.0,19.0,-100.00,WSW,246,11.0,19.0,82,0.00,,,0.12,31.000000,,2013-09-28 14:32:00,
2013-09-28 08:42:00,24.0,19.0,-100.00,WSW,246,11.0,19.0,82,0.00,,,0.12,31.000000,,2013-09-28 14:42:00,
2013-09-28 08:52:00,28.0,21.0,-100.00,WSW,250,14.0,23.0,76,0.00,,,0.05,195.000000,,2013-09-28 14:52:00,
2013-09-28 09:23:00,28.0,21.0,-100.00,WSW,250,14.0,23.0,76,0.00,,,0.05,195.000000,,2013-09-28 15:23:00,
2013-09-28 09:34:00,28.0,21.0,-100.00,WSW,250,14.0,23.0,76,0.00,,,0.05,195.000000,,2013-09-28 15:34:00,
2013-09-28 09:44:00,28.0,21.0,-100.00,WSW,250,14.0,23.0,76,0.00,,,0.05,195.000000,,2013-09-28 15:44:00,
2013-09-28 09:52:00,31.0,22.0,-100.00,WSW,250,15.0,24.0,68,0.01,,,0.05,514.000000,,2013-09-28 15:52:00,
2013-09-28 10:24:00,31.0,22.0,-100.00,WSW,250,15.0,24.0,68,0.01,,,0.05,514.000000,,2013-09-28 16:24:00,
2013-09-28 10:34:00,31.0,22.0,-100.00,WSW,250,15.0,24.0,68,0.01,,,0.05,514.000000,,2013-09-28 16:34:00,
2013-09-28 10:43:00,31.0,22.0,-100.00,WSW,250,15.0,24.0,68,0.01,,,0.05,514.000000,,2013-09-28 16:43:00,
2013-09-28 10:52:00,34.0,23.0,-100.00,WSW,246,14.0,28.0,63,0.01,,,0.06,697.000000,,2013-09-28 16:52:00,
2013-09-28 11:23:00,34.0,23.0,-100.00,WSW,246,14.0,28.0,63,0.01,,,0.06,697.000000,,2013-09-28 17:23:00,
2013-09-28 11:34:00,34.0,23.0,-100.00,WSW,246,14.0,28.0,63,0.01,,,0.06,697.000000,,2013-09-28 17:34:00,
2013-09-28 11:43:00,34.0,23.0,-100.00,WSW,246,14.0,28.0,63,0.01,,,0.06,697.000000,,2013-09-28 17:43:00,
2013-09-28 11:52:00,39.0,25.0,-100.00,SW,233,11.0,24.0,58,0.00,,,0.05,836.000000,,2013-09-28 17:52:00,
2013-09-28 12:22:00,39.0,25.0,-100.00,SW,233,11.0,24.0,58,0.00,,,0.05,836.000000,,2013-09-28 18:22:00,
2013-09-28 12:32:00,39.0,25.0,-100.00,SW,233,11.0,24.0,58,0.00,,,0.05,836.000000,,2013-09-28 18:32:00,
2013-09-28 12:42:00,39.0,25.0,-100.00,SW,233,11.0,24.0,58,0.00,,,0.05,836.000000,,2013-09-28 18:42:00,
2013-09-28 12:52:00,40.0,26.0,-100.00,WSW,242,14.0,27.0,56,0.00,,,0.03,876.000000,,2013-09-28 18:52:00,
2013-09-28 13:22:00,40.0,26.0,-100.00,WSW,242,14.0,27.0,56,0.00,,,0.03,876.000000,,2013-09-28 19:22:00,
2013-09-28 13:32:00,40.0,26.0,-100.00,WSW,242,14.0,27.0,56,0.00,,,0.03,876.000000,,2013-09-28 19:32:00,
2013-09-28 13:42:00,40.0,26.0,-100.00,WSW,242,14.0,27.0,56,0.00,,,0.03,876.000000,,2013-09-28 19:42:00,
2013-09-28 13:52:00,43.0,27.0,-100.00,WSW,255,13.0,25.0,53,0.00,,,0.03,922.000000,,2013-09-28 19:52:00,
2013-09-28 14:22:00,43.0,27.0,-100.00,WSW,255,13.0,25.0,53,0.00,,,0.03,922.000000,,2013-09-28 20:22:00,
2013-09-28 14:33:00,43.0,27.0,-100.00,WSW,255,13.0,25.0,53,0.00,,,0.03,922.000000,,2013-09-28 20:33:00,
2013-09-28 14:43:00,43.0,27.0,-100.00,WSW,255,13.0,25.0,53,0.00,,,0.03,922.000000,,2013-09-28 20:43:00,
2013-09-28 14:52:00,42.0,25.0,-100.00,West,259,14.0,25.0,51,0.00,,,0.02,740.000000,,2013-09-28 20:52:00,
2013-09-28 15:23:00,42.0,25.0,-100.00,West,259,14.0,25.0,51,0.00,,,0.02,740.000000,,2013-09-28 21:23:00,
2013-09-28 15:34:00,42.0,25.0,-100.00,West,259,14.0,25.0,51,0.00,,,0.02,740.000000,,2013-09-28 21:34:00,
2013-09-28 15:44:00,42.0,25.0,-100.00,West,259,14.0,25.0,51,0.00,,,0.02,740.000000,,2013-09-28 21:44:00,
2013-09-28 15:52:00,46.0,27.0,-100.00,WSW,248,11.0,22.0,48,0.00,,,0.02,654.000000,,2013-09-28 21:52:00,
2013-09-28 16:23:00,46.0,27.0,-100.00,WSW,248,11.0,22.0,48,0.00,,,0.02,654.000000,,2013-09-28 22:23:00,
2013-09-28 16:33:00,46.0,27.0,-100.00,WSW,248,11.0,22.0,48,0.00,,,0.02,654.000000,,2013-09-28 22:33:00,
2013-09-28 16:43:00,46.0,27.0,-100.00,WSW,248,11.0,22.0,48,0.00,,,0.02,654.000000,,2013-09-28 22:43:00,
2013-09-28 16:52:00,46.0,26.0,-100.00,WSW,251,11.0,21.0,45,0.00,,,0.02,489.000000,,2013-09-28 22:52:00,
2013-09-28 17:22:00,46.0,26.0,-100.00,WSW,251,11.0,21.0,45,0.00,,,0.02,489.000000,,2013-09-28 23:22:00,
2013-09-28 17:34:00,46.0,26.0,-100.00,WSW,251,11.0,21.0,45,0.00,,,0.02,489.000000,,2013-09-28 23:34:00,
2013-09-28 17:43:00,46.0,26.0,-100.00,WSW,251,11.0,21.0,45,0.00,,,0.02,489.000000,,2013-09-28 23:43:00,
2013-09-28 17:52:00,45.0,27.0,-100.00,West,266,10.0,18.0,48,0.00,,,0.02,323.000000,,2013-09-28 23:52:00,
2013-09-28 18:22:00,45.0,27.0,-100.00,West,266,10.0,18.0,48,0.00,,,0.02,323.000000,,2013-09-29 00:22:00,
2013-09-28 18:32:00,45.0,27.0,-100.00,West,266,10.0,18.0,48,0.00,,,0.02,323.000000,,2013-09-29 00:32:00,
2013-09-28 18:43:00,45.0,27.0,-100.00,West,266,10.0,18.0,48,0.00,,,0.02,323.000000,,2013-09-29 00:43:00,
2013-09-28 18:52:00,39.0,25.0,-100.00,West,264,8.0,19.0,57,0.00,,,0.02,40.000000,,2013-09-29 00:52:00,
2013-09-28 19:22:00,39.0,25.0,-100.00,West,264,8.0,19.0,57,0.00,,,0.02,40.000000,,2013-09-29 01:22:00,
2013-09-28 19:32:00,39.0,25.0,-100.00,West,264,8.0,19.0,57,0.00,,,0.02,40.000000,,2013-09-29 01:32:00,
2013-09-28 19:43:00,39.0,25.0,-100.00,West,264,8.0,19.0,57,0.00,,,0.02,40.000000,,2013-09-29 01:43:00,
2013-09-28 19:52:00,36.0,23.0,-100.00,West,259,8.0,14.0,59,0.00,,,-99.99,1.000000,,2013-09-29 01:52:00,
2013-09-28 20:22:00,36.0,23.0,-100.00,West,259,8.0,14.0,59,0.00,,,-99.99,1.000000,,2013-09-29 02:22:00,
2013-09-28 20:32:00,36.0,23.0,-100.00,West,259,8.0,14.0,59,0.00,,,-99.99,1.000000,,2013-09-29 02:32:00,
2013-09-28 20:43:00,36.0,23.0,-100.00,West,259,8.0,14.0,59,0.00,,,-99.99,1.000000,,2013-09-29 02:43:00,
2013-09-28 20:52:00,35.0,23.0,-100.00,SW,233,8.0,14.0,62,0.00,,,0.02,0.000000,,2013-09-29 02:52:00,
2013-09-28 21:23:00,35.0,23.0,-100.00,SW,233,8.0,14.0,62,0.00,,,0.02,0.000000,,2013-09-29 03:23:00,
2013-09-28 21:34:00,35.0,23.0,-100.00,SW,233,8.0,14.0,62,0.00,,,0.02,0.000000,,2013-09-29 03:34:00,
2013-09-28 21:44:00,35.0,23.0,-100.00,SW,233,8.0,14.0,62,0.00,,,0.02,0.000000,,2013-09-29 03:44:00,
2013-09-28 21:52:00,36.0,25.0,-100.00,WSW,237,11.0,20.0,64,0.00,,,0.02,0.000000,,2013-09-29 03:52:00,
2013-09-28 22:24:00,36.0,25.0,-100.00,WSW,237,11.0,20.0,64,0.00,,,0.02,0.000000,,2013-09-29 04:24:00,
2013-09-28 22:34:00,36.0,25.0,-100.00,WSW,237,11.0,20.0,64,0.00,,,0.02,0.000000,,2013-09-29 04:34:00,
2013-09-28 22:44:00,36.0,25.0,-100.00,WSW,237,11.0,20.0,64,0.00,,,0.02,0.000000,,2013-09-29 04:44:00,
2013-09-28 22:52:00,35.0,25.0,-100.00,WSW,240,10.0,21.0,66,0.00,,,0.02,0.000000,,2013-09-29 04:52:00,
2013-09-28 23:22:00,35.0,25.0,-100.00,WSW,240,10.0,21.0,66,0.00,,,0.02,0.000000,,2013-09-29 05:22:00,
2013-09-28 23:34:00,35.0,25.0,-100.00,WSW,240,10.0,21.0,66,0.00,,,0.02,0.000000,,2013-09-29 05:34:00,
2013-09-28 23:43:00,35.0,25.0,-100.00,WSW,240,10.0,21.0,66,0.00,,,0.02,0.000000,,2013-09-29 05:43:00,
2013-09-28 23:52:00,35.0,24.0,-100.00,SW,235,11.0,19.0,63,0.00,,,0.02,0.000000,,2013-09-29 05:52:00,